2024-247F

Last updated on Wed Jan 15 2025 00:02:04 GMT+0000 (Coordinated Universal Time)

1 62382U 24247F 25013.74318670 .00006303 00000+0 30656-3 0 9991 2 62382 44.9915 235.5385 0001969 156.9573 203.1395 15.19220602 3685
UTC large
Height (km)
Speed (km/s)
/
Latitude / Longitude
Inclination (degrees)
Orbital Period (minutes)
Azimuth
Elevation
Range (km)
Doppler Factor

Next 0 passes for location: London (51.5072 / 0.1276)

Sorry there are no passes over London.